User: anonymous   Login
Location: Gombori
(14.9797°N, 2.9419°W)
Time: 15:42:54
(UTC+00:00)
Language:

CSL-04 Rocket - Orbit

View from above orbital plane
View from above orbital plane
View from above satellite
View from above satellite

Ground track
Ground track

The orbit data is extracted from the following two-line orbital elements,

1 25732U 99025C   21295.75545731 -.00000023  00000-0  10848-4 0  9991
2 25732  98.8895 332.4185 0036420 245.8021 223.9417 14.17702046161571
Epoch (UTC): 22 October 2021 18:07:51
Eccentricity: 0.0036420
inclination: 98.8895°
perigee height: 807 km
apogee height: 859 km
right ascension of ascending node: 332.4185°
argument of perigee: 245.8021°
revolutions per day: 14.17702046
mean anomaly at epoch: 223.9417°
orbit number at epoch: 16157

The dashed part of the orbit path shows where the satellite is in the earth's shadow,  

DLR